Weather History for 78073 - September, 2013

Change the Weather History Date:

Thursday, September 19, 2013

  Actual Average Record
Temperature  
Mean Temperature 82 °F -  
Max Temperature 88 °F 86 °F - ()
Min Temperature 76 °F 73 °F - ()
Cooling Degree Days 17    
Growing Degree Days 32 (Base 50)    
Moisture  
Dew Point 74 °F    
Average Humidity 80    
Maximum Humidity 100    
Minimum Humidity 21    
Precipitation  
Precipitation 0.20 in 0.23 in - ()
Sea Level Pressure  
Sea Level Pressure 29.95 in    
Wind  
Wind Speed 3 mph ()    
Max Wind Speed 9 mph    
Max Gust Speed -    
Visibility 6.6 miles    
Events Rain    
T = Trace of Precipitation, MM = Missing Value Source: Averaged Metar Reports

Daily Weather History Graph

Daily Weather History Graph

Search for Another Location

Airport or City:

Trip Planner

Search our weather history database for the weather conditions in past years. The results will help you decide how hot, cold, wet, or windy it might be!

Date:

Astronomy

Sep. 19, 2013 Rise Set
Actual Time 6:57 AM EDT 7:09 PM EDT
Civil Twilight 6:34 AM EDT 7:32 PM EDT
Nautical Twilight 6:07 AM EDT 7:58 PM EDT
Astronomical Twilight 5:41 AM EDT 8:25 PM EDT
Moon 7:14 PM EDT (9/19) 6:59 AM EDT (9/19)
Length of Visible Light 12h 57m
Length of Day
12h 11m
Full, 100% of the Moon is Illuminated
Sep 19
Full
Sep 26
Last Quarter
Oct 4
New
Oct 11
First Quarter
Oct 18
Full

Hourly Weather History & Observations

Time (EDT) Temp. Heat Index Dew Point Humidity Pressure Visibility Wind Dir Wind Speed Gust Speed Precip Events Conditions
12:00 AM 78.8 °F - 73.4 °F 83% 30.00 in 6.2 mi Calm Calm - N/A   Mostly Cloudy
1:00 AM 78.8 °F - 73.4 °F 83% 29.98 in 6.2 mi Calm Calm - N/A   Mostly Cloudy
2:00 AM 79 °F - 76 °F 89% 29.98 in 8 mi Calm Calm - -   Partly Cloudy
2:00 AM 78.8 °F - 77.0 °F 94% 29.98 in 6.2 mi Calm Calm - N/A   Mostly Cloudy
3:00 AM 77.0 °F - 75.2 °F 94% 29.95 in 6.2 mi Calm Calm - N/A   Mostly Cloudy
4:00 AM 77.0 °F - 75.2 °F 94% 29.93 in 6.2 mi Calm Calm - N/A   Scattered Clouds
5:00 AM 78 °F - 75 °F 86% 29.91 in 8 mi NNE 3.5 mph - -   Partly Cloudy
5:00 AM 78.8 °F - 75.2 °F 89% 29.91 in 6.2 mi NNE 3.5 mph - N/A   Mostly Cloudy
6:00 AM 78.8 °F - 71.6 °F 78% 29.92 in 6.2 mi NNE 3.5 mph - N/A   Mostly Cloudy
7:00 AM 78.8 °F - 73.4 °F 83% 29.93 in 6.2 mi NNE 3.5 mph - N/A   Mostly Cloudy
8:00 AM 81 °F - 75 °F 76% 29.94 in 8 mi NNE 5.8 mph - -   Partly Cloudy
8:00 AM 80.6 °F 86.2 °F 75.2 °F 84% 29.94 in 6.2 mi NNE 5.8 mph - N/A   Mostly Cloudy
9:00 AM 84.2 °F 90.9 °F 73.4 °F 70% 29.96 in 6.2 mi NE 5.8 mph - N/A   Mostly Cloudy
11:00 AM 86 °F - 77 °F 67% 29.99 in 8 mi NNE 8.1 mph - - Rain Light Rain Showers
11:00 AM 86.0 °F 96.9 °F 77.0 °F 74% 29.98 in 6.2 mi NNE 8.1 mph - N/A   Mostly Cloudy
12:00 PM 84.2 °F 92.3 °F 75.2 °F 74% 29.99 in 6.2 mi NE 3.5 mph - N/A   Mostly Cloudy
2:00 PM 86 °F - 76 °F 65% 29.96 in 8 mi North 5.8 mph - -   Partly Cloudy
2:00 PM 86.0 °F 95.1 °F 75.2 °F 70% 29.96 in 6.2 mi North 5.8 mph - N/A   Mostly Cloudy
3:00 PM 86.0 °F 95.1 °F 75.2 °F 70% 29.93 in 6.2 mi NNE 4.6 mph - N/A   Mostly Cloudy
4:00 PM 86.0 °F 95.1 °F 75.2 °F 70% 29.92 in 6.2 mi NNE 4.6 mph - N/A   Mostly Cloudy
5:00 PM 86.0 °F 95.1 °F 75.2 °F 70% 29.92 in 6.2 mi North 9.2 mph - N/A   Mostly Cloudy
6:00 PM 82.4 °F 90.9 °F 77.0 °F 84% 29.92 in 6.2 mi NE 9.2 mph - N/A   Mostly Cloudy
7:00 PM 78.8 °F - 73.4 °F 83% 29.93 in 6.2 mi NNE 9.2 mph - N/A   Mostly Cloudy
8:00 PM 79 °F - 74 °F 82% 29.95 in 8 mi ENE 3.5 mph - - Rain Light Rain Showers
8:00 PM 78.8 °F - 75.2 °F 89% 29.94 in 6.2 mi NNE 9.2 mph - N/A   Mostly Cloudy
9:00 PM 78.8 °F - 35.6 °F 21% 29.95 in 6.2 mi East 8.1 mph - N/A   Mostly Cloudy
10:00 PM 78.8 °F - 75.2 °F 89% 29.97 in 6.2 mi East 4.6 mph - N/A Rain Light Rain Showers
11:00 PM 77 °F - 77 °F 98% 30.00 in 8 mi ENE 6.9 mph - - Rain Heavy Rain Showers
11:00 PM 77.0 °F - 77.0 °F 100% 29.99 in 6.2 mi ENE 6.9 mph - N/A Rain Light Rain Showers